[[{"header":{"parameterUnit":"m.s-1","parameterCategory":1,"la1":30.2991,"la2":30.254,"lo1":-89.0895,"lo2":-89.0444,"dy":0.0017,"dx":0.0017,"nx":28,"ny":28,"refTime":"2024-02-25T09:00:00:Z","depth":0,"parameterNumber":2,"parameterNumberName":"U-component_of_WINDS"},"data":[0,0,0,0,0,0,0,0,0,0,0,0,0,0,0,0,0,0,0,0,0,0,0,0,0,0,0,0,0,0,0,0,0,0,0,0,0,0,0,0,0,0,0,0,0,0,0,0,0,0,0,0,0,0,0,0,0,0,1.9339,1.934,0,1.939,1.9391,1.9391,1.9408,1.9408,1.9407,1.9407,1.9458,1.9459,1.9461,0,0,0,0,0,0,0,0,0,0,0,0,0,1.9251,1.9253,1.9339,1.934,1.934,1.939,1.9391,1.9392,1.9408,1.9408,1.9407,1.9407,1.9457,1.9459,1.9461,0,0,0,0,0,0,0,0,0,0,0,0,0,1.9295,1.9253,1.9339,1.9354,1.9356,1.939,1.9391,1.9392,1.9408,1.9408,1.9407,1.9407,1.9457,1.9459,1.9461,1.9483,0,0,1.9468,1.9469,0,0,0,0,0,0,0,0,1.9292,1.9298,1.9352,1.9353,1.9356,1.9392,1.9379,1.9422,1.9408,1.9388,1.9407,1.9407,1.9436,1.944,1.9451,1.9485,1.9487,1.9469,1.947,1.9471,1.9472,0,0,0,0,0,0,0,1.9289,1.9296,1.9359,1.9352,1.9355,1.9358,1.9363,1.9387,1.9413,1.939,1.9391,1.9397,1.9437,1.9448,1.9452,1.9488,1.9469,1.9471,1.9472,1.9473,1.9539,1.9539,0,0,0,0,0,0,1.9284,1.9293,1.9358,1.9361,1.9322,1.9359,1.9366,1.9381,1.9413,1.9418,1.9398,1.9398,1.9444,1.9449,1.9454,1.9479,1.9471,1.9473,1.9475,1.9538,1.9539,1.9539,0,0,0,0,0,0,1.9282,1.9289,1.9356,1.9327,1.9336,1.9361,1.9378,1.9382,1.9393,1.9419,1.9424,1.9404,1.9444,1.945,1.9475,1.9481,1.9474,1.9476,1.9538,1.9539,1.9539,1.9531,0,0,0,0,0,0,1.9279,1.9289,1.9298,1.9327,1.9337,1.9377,1.9378,1.9383,1.9397,1.9398,1.9426,1.9431,1.9445,1.9471,1.9477,1.9484,1.9478,1.9538,1.9538,1.9539,1.9531,1.9531,1.9531,0,0,0,0,0,1.9276,1.9294,1.9299,1.9306,1.935,1.9377,1.9383,1.9399,1.9398,1.9407,1.9423,1.943,1.9479,1.9473,1.948,1.9488,1.9537,1.9538,1.9539,1.953,1.9531,1.9531,0,0,0,0,0,0,1.9265,1.9298,1.9304,1.9332,1.9352,1.938,1.9392,1.9399,1.942,1.942,1.9438,1.9444,1.9466,1.948,1.9473,1.9509,1.9508,1.951,1.95,1.95,1.95,1.9497,1.948,0,0,0,0,0,1.9266,1.9287,1.9314,1.9336,1.9346,1.9367,1.938,1.939,1.9411,1.9419,1.9437,1.9457,1.9476,1.9489,1.9509,1.9532,1.9537,1.954,1.9541,1.9541,1.9543,1.9554,1.9555,1.9542,1.9542,1.9542,0,0,1.9269,1.9289,1.9301,1.9334,1.9351,1.937,1.9374,1.9395,1.9409,1.9422,1.9446,1.946,1.9482,1.9505,1.9517,1.9517,1.9547,1.9542,1.9542,1.9544,1.9554,1.9556,1.9557,1.9542,1.9542,1.9542,0,0,1.9282,1.9301,1.932,1.9336,1.936,1.9374,1.9378,1.9405,1.9414,1.9439,1.9448,1.9464,1.9498,1.9513,1.9525,1.954,1.9547,1.9546,1.9548,1.9558,1.9559,1.956,1.9564,1.9566,1.9548,1.9548,1.9548,0,1.9282,1.9312,1.9329,1.9348,1.9362,1.9374,1.9393,1.9407,1.9437,1.9445,1.9445,1.9486,1.9502,1.9528,1.9531,1.9541,1.9545,1.9544,1.9558,1.9559,1.956,1.9564,1.9566,1.9547,1.9547,1.9547,1.9547,0,1.9309,1.933,1.9342,1.937,1.9385,1.9404,1.9421,1.9434,1.9442,1.9455,1.9478,1.9497,1.952,1.9526,1.9535,1.9553,1.9552,1.9555,1.9555,1.9561,1.9565,1.9567,1.9547,1.9547,1.9547,1.9547,0,0,1.932,1.9355,1.9359,1.937,1.9397,1.9412,1.943,1.9453,1.9462,1.9481,1.9496,1.9523,1.9525,1.9538,1.9548,1.9557,1.9566,1.9559,1.9559,1.9558,1.9584,1.9582,1.9583,1.957,1.957,1.957,1.9582,0,1.9336,1.9371,1.9384,1.9411,1.9429,1.9439,1.9455,1.9472,1.9483,1.9499,1.9511,1.953,1.9532,1.9539,1.9549,1.9563,1.9571,1.9562,1.9582,1.9583,1.9576,1.9586,1.9584,1.9594,1.9584,1.9584,1.9584,0,1.9361,1.9379,1.9408,1.943,1.9438,1.9452,1.9471,1.9487,1.9505,1.9513,1.9526,1.9535,1.9552,1.955,1.9573,1.9567,1.9575,1.9583,1.9583,1.9586,1.9584,1.9588,1.9598,1.9599,1.9587,1.9587,1.9587,0,1.9364,1.9396,1.9417,1.9426,1.9453,1.9462,1.9473,1.9491,1.9502,1.9519,1.9526,1.9545,1.9555,1.9568,1.958,1.9578,1.9601,1.9601,1.9607,1.9607,1.9612,1.9612,1.9623,1.9618,1.9618,1.9618,1.9618,0,1.938,1.9397,1.9418,1.9431,1.9449,1.9463,1.948,1.9492,1.9507,1.9521,1.9531,1.9543,1.9559,1.9573,1.9583,1.96,1.9604,1.961,1.9612,1.9609,1.9608,1.9615,1.9615,1.9618,1.9618,1.9618,1.9618,0,1.9387,1.9402,1.9425,1.9447,1.9453,1.9465,1.9484,1.9495,1.9506,1.9524,1.9528,1.9546,1.9562,1.9576,1.9598,1.9604,1.9621,1.9624,1.9615,1.9616,1.9621,1.962,1.9638,1.964,1.9633,1.9634,1.9634,0,1.9397,1.941,1.9433,1.9443,1.9454,1.947,1.9482,1.9495,1.9506,1.9526,1.9535,1.9552,1.9567,1.9593,1.9607,1.9623,1.9626,1.963,1.9628,1.9624,1.9625,1.9624,1.9624,1.9631,1.9631,1.9631,1.9631,0,1.9412,1.9418,1.9434,1.9452,1.9465,1.948,1.9495,1.9502,1.9518,1.953,1.9547,1.9558,1.958,1.9596,1.9613,1.9623,1.9629,1.9631,1.9633,1.963,1.9624,1.9626,1.9615,1.9631,1.9631,1.9631,1.9631,1.9631,1.942,1.9431,1.9448,1.9465,1.9478,1.9491,1.9502,1.9514,1.9529,1.9548,1.9554,1.9571,1.9587,1.961,1.962,1.9632,1.9633,1.9636,1.9637,1.9638,1.9637,1.9622,1.9636,1.9636,1.9636,1.9636,1.9636,0,1.9434,1.9445,1.9461,1.9481,1.9494,1.9498,1.9514,1.9524,1.9539,1.9553,1.9567,1.9585,1.96,1.9614,1.963,1.9637,1.964,1.964,1.964,1.9642,1.9636,1.9632,1.9638,1.9638,1.9638,1.9638,1.9638,1.9638,1.9444,1.9462,1.9469,1.9493,1.9504,1.9521,1.9529,1.9541,1.9551,1.9572,1.9584,1.9593,1.9607,1.9623,1.9636,1.964,1.9645,1.9645,1.9649,1.9643,1.9643,1.9642,1.9639,1.9646,1.9646,1.9654,1.9654,1.9654]},{"header":{"parameterUnit":"m.s-1","parameterCategory":1,"la1":30.2991,"la2":30.254,"lo1":-89.0895,"lo2":-89.0444,"dy":0.0017,"dx":0.0017,"nx":28,"ny":28,"refTime":"2024-02-25T09:00:00:Z","depth":0,"parameterNumber":3,"parameterNumberName":"V-component_of_WINDS"},"data":[0,0,0,0,0,0,0,0,0,0,0,0,0,0,0,0,0,0,0,0,0,0,0,0,0,0,0,0,0,0,0,0,0,0,0,0,0,0,0,0,0,0,0,0,0,0,0,0,0,0,0,0,0,0,0,0,0,0,4.2561,4.2561,0,4.2558,4.2558,4.2558,4.2533,4.2533,4.2532,4.2531,4.2528,4.2529,4.2529,0,0,0,0,0,0,0,0,0,0,0,0,0,4.2544,4.2544,4.2561,4.2561,4.2561,4.2558,4.2558,4.2558,4.2533,4.2533,4.2532,4.2531,4.2528,4.2528,4.2529,0,0,0,0,0,0,0,0,0,0,0,0,0,4.2547,4.2545,4.2561,4.2548,4.2547,4.2558,4.2558,4.2558,4.2534,4.2533,4.2532,4.2531,4.2528,4.2528,4.2529,4.2552,0,0,4.2531,4.2532,0,0,0,0,0,0,0,0,4.2547,4.2548,4.255,4.2549,4.2548,4.2545,4.2551,4.2556,4.2534,4.2539,4.2531,4.253,4.2534,4.2535,4.2536,4.2552,4.2552,4.2531,4.2532,4.2532,4.2532,0,0,0,0,0,0,0,4.2547,4.2548,4.256,4.255,4.2549,4.2542,4.2542,4.2552,4.2542,4.2538,4.2536,4.2536,4.2534,4.2535,4.2536,4.2552,4.2531,4.2532,4.2532,4.2533,4.2587,4.2588,0,0,0,0,0,0,4.2549,4.2548,4.256,4.256,4.2545,4.2543,4.2543,4.2547,4.2542,4.254,4.2537,4.2535,4.2535,4.2535,4.2536,4.2563,4.2532,4.2533,4.2533,4.2586,4.2587,4.2588,0,0,0,0,0,0,4.2548,4.255,4.256,4.2553,4.2554,4.2545,4.2549,4.2547,4.2549,4.2541,4.2539,4.2541,4.2534,4.2535,4.2548,4.2562,4.2533,4.2534,4.2585,4.2586,4.2587,4.2617,0,0,0,0,0,0,4.2548,4.255,4.2559,4.2554,4.2555,4.2573,4.255,4.2548,4.255,4.2548,4.2544,4.2542,4.2533,4.2547,4.2549,4.2563,4.2534,4.2583,4.2585,4.2587,4.2614,4.2619,4.2623,0,0,0,0,0,4.2547,4.2567,4.2559,4.2561,4.2565,4.2574,4.2574,4.2564,4.2552,4.256,4.2555,4.2542,4.256,4.2549,4.2551,4.2565,4.2582,4.2585,4.2587,4.2613,4.2618,4.2623,0,0,0,0,0,0,4.2573,4.2566,4.2557,4.2575,4.2576,4.257,4.258,4.257,4.2573,4.257,4.2557,4.2556,4.2572,4.257,4.2557,4.2587,4.2569,4.2572,4.2588,4.2593,4.2597,4.2598,4.2535,0,0,0,0,0,4.2581,4.2588,4.2581,4.2598,4.2599,4.259,4.2593,4.2585,4.2584,4.2584,4.2579,4.2579,4.2585,4.2589,4.2593,4.2614,4.2613,4.2624,4.2628,4.2632,4.2635,4.2646,4.2651,4.2595,4.2595,4.2595,0,0,4.2597,4.2594,4.2599,4.2603,4.2602,4.2611,4.259,4.2599,4.2605,4.2585,4.2598,4.2595,4.2594,4.2611,4.2619,4.261,4.265,4.2635,4.2638,4.2638,4.2649,4.2654,4.2659,4.2597,4.2597,4.2596,0,0,4.263,4.2629,4.2643,4.2643,4.2642,4.2635,4.2639,4.2635,4.2632,4.2645,4.263,4.2637,4.2647,4.2647,4.2648,4.2682,4.2671,4.2684,4.2706,4.2718,4.2722,4.2726,4.2739,4.2744,4.2687,4.2687,4.2687,0,4.265,4.2663,4.2651,4.2662,4.2665,4.2647,4.2661,4.2661,4.2662,4.2664,4.2654,4.2666,4.2664,4.2682,4.269,4.2691,4.2695,4.2685,4.2722,4.2726,4.2729,4.2742,4.2747,4.2688,4.2688,4.2688,4.2688,0,4.2688,4.2697,4.2708,4.271,4.2713,4.2726,4.2716,4.2721,4.2713,4.2708,4.2721,4.2718,4.2722,4.2726,4.2717,4.2742,4.2737,4.2725,4.2707,4.2737,4.2748,4.2753,4.2691,4.269,4.269,4.2689,0,0,4.2738,4.2733,4.2738,4.2739,4.2736,4.2743,4.2755,4.2759,4.2764,4.2765,4.2775,4.2783,4.2772,4.2774,4.2765,4.2775,4.2804,4.2762,4.2762,4.277,4.2832,4.2842,4.2847,4.2796,4.2797,4.2797,4.2832,0,4.2771,4.2791,4.2781,4.2803,4.2811,4.2795,4.2805,4.2805,4.2801,4.2807,4.2802,4.2809,4.2793,4.2794,4.2803,4.2798,4.2816,4.2795,4.2805,4.2806,4.2807,4.2853,4.2863,4.2896,4.2836,4.2837,4.2838,0,4.2812,4.2816,4.2838,4.2835,4.2838,4.2848,4.2852,4.2858,4.2857,4.2853,4.2855,4.2845,4.2856,4.2838,4.2854,4.284,4.2844,4.2842,4.2843,4.2844,4.2824,4.2856,4.2907,4.2912,4.2844,4.2844,4.2843,0,4.2847,4.2857,4.2872,4.2874,4.287,4.2878,4.2877,4.2875,4.2879,4.2882,4.2884,4.2888,4.289,4.2894,4.2885,4.2872,4.2902,4.2883,4.29,4.29,4.2907,4.2907,4.296,4.2908,4.2908,4.2908,4.2908,0,4.2886,4.29,4.2888,4.2898,4.2914,4.2902,4.2919,4.2916,4.2915,4.2923,4.2909,4.2917,4.2904,4.2911,4.2904,4.2919,4.292,4.2917,4.2915,4.2919,4.292,4.2922,4.2919,4.2909,4.2909,4.2909,4.2908,0,4.2928,4.292,4.2936,4.2932,4.2931,4.2943,4.294,4.2948,4.2943,4.2954,4.2956,4.2948,4.2955,4.2946,4.2953,4.2948,4.2968,4.2963,4.2969,4.2968,4.2985,4.2984,4.3042,4.3049,4.2992,4.2992,4.2993,0,4.2953,4.2964,4.2962,4.2967,4.2967,4.2975,4.2979,4.2968,4.2972,4.2973,4.2982,4.2988,4.2993,4.3006,4.3,4.3005,4.3,4.302,4.3001,4.3004,4.3001,4.3001,4.3003,4.3024,4.3025,4.3025,4.3026,0,4.2999,4.2995,4.3002,4.3007,4.3012,4.3015,4.3018,4.3022,4.3011,4.3017,4.3025,4.3029,4.3036,4.3043,4.3046,4.3045,4.3034,4.3032,4.3036,4.304,4.3044,4.3043,4.2981,4.3031,4.303,4.303,4.3029,4.3029,4.3034,4.3044,4.3044,4.3052,4.3052,4.3055,4.3063,4.3059,4.3066,4.3071,4.3064,4.3074,4.3074,4.3078,4.3078,4.3086,4.3077,4.3083,4.3085,4.3087,4.309,4.3042,4.3086,4.3086,4.3086,4.3086,4.3086,0,4.3081,4.308,4.3087,4.3091,4.3098,4.3087,4.3089,4.3095,4.3104,4.3105,4.311,4.3119,4.3126,4.3121,4.3127,4.3134,4.3129,4.3136,4.3136,4.3136,4.3097,4.3093,4.314,4.314,4.314,4.314,4.314,4.314,4.3105,4.3121,4.3117,4.3134,4.3133,4.3143,4.3145,4.3148,4.3148,4.316,4.3166,4.3163,4.3161,4.3167,4.3173,4.3171,4.3174,4.3183,4.318,4.3144,4.3138,4.3133,4.313,4.3184,4.3184,4.3219,4.3219,4.3219]}]]